STARLINK-4056 (53242 NORAD) Tracking and Keplerian Element Data

This shows tracking and keplerian element data for the satellite.

Feedback or suggestion? Click here.




ElementValue
Catalog53242
NameSTARLINK-4056
Epoch Orbit1067
Epoch Day270.25001157
Epoch Year2022
RAAN92.9682
Inclination53.216
Eccentricity0.0001426
Argument of Perigee78.7982
Mean Anonmoly106.8463
Mean Motion15.08849462
Decay Rate-0.00010405
L11 53242U 22086A 22270.25001157 -.00010405 00000+0 -63642-3 0 9993
L22 53242 53.2160 92.9682 0001426 78.7982 106.8463 15.08849462 10674

Live tracking and technical data element details for STARLINK-4056 (NORAD 53242). STARLINK-4056 can be tracked NOW for your location showing map with azimuth and elevation plus other details from your city location.

Track the satellite on the map from your city or location and see movement details for azimuth, elevation, latitude, longitude, range, height, and movement on the map or in text.







IsCatalogInMostPopularTable: catalog: 53242, numindb: 5
Update: records affected: 1



GetName: 53242 STARLINK-4056

Hit Count: updated at: Fri, 30 Sep 2022 02:30:00 GMT